"Pseudo-MPEC" for CCD68Y2

Created 2024 Dec 5 1:31:19 UT using Find_Orb

Click here for an explanation of pseudo-MPECs

 
 Astrometry: 
     CCD68Y2*1C2024 11 26.40485109 01 37.117+59 00 14.11   ~BQAl 20.06GVNEOCPG96
     CCD68Y2 1C2024 11 26.41057109 01 29.824+59 00 55.62   ~BQAl 20.12GVNEOCPG96
     CCD68Y2 1C2024 11 26.42200209 01 15.287+59 02 16.08   ~BQAl 20.03GVNEOCPG96
     CCD68Y2 KC2024 11 26.51819808 59 13.110+59 11 32.32   ~BQD2 20.12GVNEOCPI52
     CCD68Y2 KC2024 11 26.52062008 59 10.039+59 11 44.45   ~BQD2 20.73GVNEOCPI52
     CCD68Y2 KC2024 11 26.52304108 59 07.094+59 11 55.07   ~BQD2 21.09GVNEOCPI52
     CCD68Y2 KC2024 11 26.52546008 59 04.171+59 12 04.00   ~BQD2       VNEOCPI52
     CCD68Y2 1C2024 11 27.17057108 52 23.590+59 52 51.38   ~BRHl 20.7 GVNEOCPZ84
     CCD68Y2 1C2024 11 27.17863808 52 16.654+59 53 17.32   ~BRHl 21.0 GVNEOCPZ84
     CCD68Y2 7C2024 11 29.15911608 41 06.455+60 51 10.98   ~BT9H 22.0 GVNEOCPZ84
     CCD68Y2 7C2024 11 29.17309608 41 00.448+60 51 26.54   ~BT9H 21.5 GVNEOCPZ84
     CCD68Y2 7C2024 11 29.18708808 40 54.556+60 51 40.54   ~BT9H 21.7 GVNEOCPZ84

Station data:
(G96) Mt. Lemmon Survey  (N32.442729 W110.788720)  US/Arizona.  Observer E.
   J. Christensen. 1.5-m reflector + 10K CCD.
(I52) Steward Observatory, Mt. Lemmon Station  (N32.442570 W110.788920)
   US/Arizona.  Observers T. A. Pruyne, B. M. Africano, E. J. Christensen, G.
   A. Farneth, D. C. Fuls, A. R. Gibbs, A. D. Grauer, H. Gröller, J. A.
   Johnson, R. A. Kowalski, S. M. Larson, G. J. Leonard, D. Rankin, R. L.
   Seaman, F. C. Shelly, K. W. Wierzchoś. 1.0-m prime focus + CCD.
(Z84) Calar Alto-Schmidt  (N37.224006 W2.548160)  Spain.  Observers M.
   Micheli, F. Ocaña. Measurers E. Schwab, D. Koschny, M. Micheli. 0.8-m f/3
   Schmidt + CCD.

Orbital elements:  CCD68Y2
   Perihelion 2024 Nov 7.33395 +/- 0.00386 TT =  8:00:53 (JD 2460621.83395)
Epoch 2024 Nov 29.0 TT = JDT 2460643.5   Earth MOID: 0.0005      AutoNEOCP
M   7.48000734 +/- 0.023            (J2000 ecliptic)
n   0.34524098 +/- 0.00104          Peri.  338.67001 +/- 0.0032
a   2.01243169 +/- 0.00405          Node    62.11833 +/- 0.0008
e   0.5212244 +/- 0.000982          Incl.   10.56903 +/- 0.013
P   2.85484                H 27.69  G  0.15   U  8.1
q 0.96350312 +/- 3.67e-5    Q 3.06136027 +/- 0.00814
From 12 observations 2024 Nov. 26-29; mean residual 0".48
Residuals in arcseconds: 
241126 G96  .03+  .54-    241126 I52  .32-  1.4+    241127 Z84  .12-  .26-    
241126 G96  .24-  .39-    241126 I52  .02-  .98+    241129 Z84  .05-  .18+    
241126 G96  .03-  .36-    241126 I52  .38+  1.0-    241129 Z84  .25-  .02-    
241126 I52  .28+  .50+    241127 Z84  .10+  .14-    241129 Z84  .28+  .09-    

Ephemerides (geocentric):
Date (UTC) HH   RA             Dec           delta  r     elong  mag " sig PA
---- --------  ------------   ------------  ------ ------ -----  --- --------
2024 12 05 02  08 28 21.898   +61 30 36.19  .06405 1.0243 125.8 23.7 .533 104
2024 12 05 03  08 28 18.187   +61 30 40.74  .06430 1.0244 125.8 23.7 .537 104
2024 12 05 04  08 28 14.484   +61 30 45.20  .06454 1.0246 125.8 23.7 .540 104
2024 12 05 05  08 28 10.789   +61 30 49.56  .06478 1.0248 125.9 23.7 .543 104
2024 12 05 06  08 28 07.102   +61 30 53.82  .06503 1.0249 125.9 23.7 .546 104
2024 12 05 07  08 28 03.421   +61 30 57.99  .06527 1.0251 125.9 23.7 .549 104
2024 12 05 08  08 27 59.749   +61 31 02.06  .06552 1.0253 126.0 23.7 .552 104
2024 12 05 09  08 27 56.083   +61 31 06.03  .06576 1.0255 126.0 23.7 .555 104
2024 12 05 10  08 27 52.425   +61 31 09.92  .06600 1.0256 126.0 23.7 .558 104
2024 12 05 11  08 27 48.773   +61 31 13.70  .06625 1.0258 126.1 23.7 .561 104
2024 12 05 12  08 27 45.128   +61 31 17.40  .06649 1.0260 126.1 23.7 .564 104
2024 12 05 13  08 27 41.490   +61 31 21.01  .06673 1.0262 126.1 23.8 .567 104
2024 12 05 14  08 27 37.858   +61 31 24.52  .06698 1.0263 126.2 23.8 .570 104
2024 12 05 15  08 27 34.233   +61 31 27.94  .06722 1.0265 126.2 23.8 .573 104
2024 12 05 16  08 27 30.614   +61 31 31.28  .06746 1.0267 126.2 23.8 .576 104
2024 12 05 17  08 27 27.001   +61 31 34.52  .06771 1.0269 126.3 23.8 .579 103
2024 12 05 18  08 27 23.395   +61 31 37.67  .06795 1.0271 126.3 23.8 .582 103
2024 12 05 19  08 27 19.794   +61 31 40.74  .06819 1.0272 126.3 23.8 .585 103
2024 12 05 20  08 27 16.199   +61 31 43.72  .06844 1.0274 126.3 23.8 .588 103
2024 12 05 21  08 27 12.610   +61 31 46.61  .06868 1.0276 126.4 23.8 .591 103
2024 12 05 22  08 27 09.027   +61 31 49.41  .06892 1.0278 126.4 23.8 .593 103
2024 12 05 23  08 27 05.449   +61 31 52.13  .06917 1.0279 126.4 23.8 .596 103
2024 12 06 00  08 27 01.876   +61 31 54.77  .06941 1.0281 126.5 23.8 .599 103
2024 12 06 01  08 26 58.309   +61 31 57.32  .06966 1.0283 126.5 23.8 .602 103
2024 12 06 02  08 26 54.747   +61 31 59.78  .06990 1.0285 126.5 23.8 .605 103
2024 12 06 03  08 26 51.190   +61 32 02.16  .07014 1.0287 126.6 23.8 .608 103
2024 12 06 04  08 26 47.639   +61 32 04.46  .07039 1.0288 126.6 23.9 .611 103
2024 12 06 05  08 26 44.092   +61 32 06.67  .07063 1.0290 126.6 23.9 .613 103
2024 12 06 06  08 26 40.550   +61 32 08.80  .07087 1.0292 126.7 23.9 .616 103
2024 12 06 07  08 26 37.013   +61 32 10.85  .07112 1.0294 126.7 23.9 .619 103
2024 12 06 08  08 26 33.480   +61 32 12.82  .07136 1.0296 126.7 23.9 .622 103
2024 12 06 09  08 26 29.952   +61 32 14.71  .07160 1.0297 126.7 23.9 .625 103
2024 12 06 10  08 26 26.428   +61 32 16.52  .07185 1.0299 126.8 23.9 .627 103
2024 12 06 11  08 26 22.909   +61 32 18.24  .07209 1.0301 126.8 23.9 .630 102
2024 12 06 12  08 26 19.394   +61 32 19.89  .07234 1.0303 126.8 23.9 .633 102
2024 12 06 13  08 26 15.884   +61 32 21.46  .07258 1.0305 126.9 23.9 .636 102
2024 12 06 14  08 26 12.377   +61 32 22.95  .07282 1.0306 126.9 23.9 .639 102
2024 12 06 15  08 26 08.875   +61 32 24.36  .07307 1.0308 126.9 23.9 .641 102
2024 12 06 16  08 26 05.376   +61 32 25.70  .07331 1.0310 127.0 23.9 .644 102
2024 12 06 17  08 26 01.882   +61 32 26.95  .07355 1.0312 127.0 23.9 .647 102
2024 12 06 18  08 25 58.391   +61 32 28.13  .07380 1.0314 127.0 23.9 .649 102
2024 12 06 19  08 25 54.904   +61 32 29.24  .07404 1.0315 127.1 24.0 .652 102
2024 12 06 20  08 25 51.420   +61 32 30.27  .07429 1.0317 127.1 24.0 .655 102
2024 12 06 21  08 25 47.941   +61 32 31.22  .07453 1.0319 127.1 24.0 .658 102
2024 12 06 22  08 25 44.464   +61 32 32.09  .07477 1.0321 127.1 24.0 .660 102
2024 12 06 23  08 25 40.991   +61 32 32.90  .07502 1.0323 127.2 24.0 .663 102
2024 12 07 00  08 25 37.522   +61 32 33.62  .07526 1.0325 127.2 24.0 .666 102
2024 12 07 01  08 25 34.056   +61 32 34.28  .07550 1.0326 127.2 24.0 .668 102